| time (UTC) | temp F | wind direction | speed MPH | gust MPH | rain 1hr in | rain 24hr in | rain mn in | humidity % | barometer mb |
| 20260509021549 | 57 | 341 | 0.0 | 1.0 | 0.00 | 0.00 | 0.00 | 46 | 1001.3 |
| 20260509021051 | 58 | 340 | 0.0 | 1.0 | 0.00 | 0.00 | 0.00 | 46 | 1001.3 |
| 20260509020547 | 58 | 342 | 0.0 | 0.0 | 0.00 | 0.00 | 0.00 | 44 | 1001.3 |
| 20260509020049 | 59 | 342 | 0.0 | 0.0 | 0.00 | 0.00 | 0.00 | 43 | 1001.4 |
| 20260509015548 | 59 | 342 | 0.0 | 0.0 | 0.00 | 0.00 | 0.00 | 43 | 1001.3 |
| 20260509015048 | 59 | 360 | 0.0 | 1.0 | 0.00 | 0.00 | 0.00 | 42 | 1001.2 |
| 20260509014547 | 60 | 342 | 0.0 | 2.0 | 0.00 | 0.00 | 0.00 | 42 | 1001.2 |
| 20260509014049 | 60 | 342 | 0.0 | 5.0 | 0.00 | 0.00 | 0.00 | 42 | 1001.1 |
| 20260509013546 | 60 | 343 | 0.0 | 2.0 | 0.00 | 0.00 | 0.00 | 41 | 1001.2 |
| 20260509013050 | 61 | 346 | 0.0 | 2.0 | 0.00 | 0.00 | 0.00 | 41 | 1001.2 |
| 20260509012545 | 61 | 338 | 0.0 | 4.0 | 0.00 | 0.00 | 0.00 | 40 | 1001.3 |
| 20260509012045 | 61 | 340 | 0.0 | 4.0 | 0.00 | 0.00 | 0.00 | 40 | 1001.3 |
| 20260509011548 | 62 | 336 | 0.0 | 5.0 | 0.00 | 0.00 | 0.00 | 40 | 1001.3 |
| 20260509011043 | 62 | 80 | 1.0 | 7.0 | 0.00 | 0.00 | 0.00 | 39 | 1001.4 |
| 20260509010545 | 62 | 346 | 2.0 | 7.0 | 0.00 | 0.00 | 0.00 | 39 | 1001.4 |
| 20260509010043 | 62 | 322 | 1.0 | 9.0 | 0.00 | 0.00 | 0.00 | 39 | 1001.5 |
| 20260509005543 | 62 | 336 | 3.0 | 9.0 | 0.00 | 0.00 | 0.00 | 38 | 1001.5 |
| 20260509005043 | 62 | 338 | 1.0 | 10.0 | 0.00 | 0.00 | 0.00 | 38 | 1001.6 |
| 20260509004553 | 62 | 324 | 2.0 | 10.0 | 0.00 | 0.00 | 0.00 | 39 | 1001.6 |
| 20260509004045 | 63 | 47 | 0.0 | 6.0 | 0.00 | 0.00 | 0.00 | 39 | 1001.6 |
| 20260509003541 | 63 | 55 | 1.0 | 6.0 | 0.00 | 0.00 | 0.00 | 38 | 1001.7 |
| 20260509003044 | 63 | 338 | 1.0 | 5.0 | 0.00 | 0.00 | 0.00 | 38 | 1001.7 |
| 20260509002544 | 63 | 348 | 1.0 | 6.0 | 0.00 | 0.00 | 0.00 | 37 | 1001.6 |
| 20260509002042 | 63 | 55 | 3.0 | 11.0 | 0.00 | 0.00 | 0.00 | 37 | 1001.6 |
| 20260509001544 | 63 | 74 | 3.0 | 10.0 | 0.00 | 0.00 | 0.00 | 37 | 1001.7 |
| 20260509001041 | 64 | 328 | 2.0 | 8.0 | 0.00 | 0.00 | 0.00 | 36 | 1001.8 |
| 20260509000540 | 64 | 315 | 2.0 | 8.0 | 0.00 | 0.00 | 0.00 | 37 | 1001.8 |
| 20260509000044 | 64 | 42 | 3.0 | 10.0 | 0.00 | 0.00 | 0.00 | 36 | 1002.0 |
| 20260508235540 | 64 | 89 | 2.0 | 10.0 | 0.00 | 0.00 | 0.00 | 36 | 1002.0 |
| 20260508235039 | 64 | 108 | 4.0 | 10.0 | 0.00 | 0.00 | 0.00 | 35 | 1001.9 |
| 20260508234539 | 64 | 355 | 2.0 | 7.0 | 0.00 | 0.00 | 0.00 | 36 | 1002.1 |
| 20260508234041 | 64 | 107 | 1.0 | 9.0 | 0.00 | 0.00 | 0.00 | 36 | 1002.1 |
| 20260508233539 | 64 | 327 | 3.0 | 9.0 | 0.00 | 0.00 | 0.00 | 35 | 1002.0 |
| 20260508233039 | 64 | 121 | 1.0 | 10.0 | 0.00 | 0.00 | 0.00 | 35 | 1002.2 |
| 20260508232538 | 64 | 67 | 5.0 | 11.0 | 0.00 | 0.00 | 0.00 | 35 | 1002.1 |
| 20260508232038 | 64 | 61 | 4.0 | 14.0 | 0.00 | 0.00 | 0.00 | 35 | 1002.2 |
| 20260508231545 | 64 | 92 | 2.0 | 10.0 | 0.00 | 0.00 | 0.00 | 36 | 1002.1 |
| 20260508231038 | 64 | 32 | 3.0 | 8.0 | 0.00 | 0.00 | 0.00 | 34 | 1002.2 |
| 20260508230538 | 64 | 297 | 1.0 | 10.0 | 0.00 | 0.00 | 0.00 | 35 | 1002.1 |
| 20260508230037 | 64 | 46 | 1.0 | 10.0 | 0.00 | 0.00 | 0.00 | 36 | 1002.0 |
| 20260508225538 | 65 | 90 | 3.0 | 8.0 | 0.00 | 0.00 | 0.00 | 34 | 1002.2 |
| 20260508225037 | 64 | 69 | 2.0 | 10.0 | 0.00 | 0.00 | 0.00 | 35 | 1002.2 |
| 20260508224559 | 64 | 15 | 3.0 | 10.0 | 0.00 | 0.00 | 0.00 | 34 | 1002.2 |
| 20260508224036 | 64 | 38 | 3.0 | 9.0 | 0.00 | 0.00 | 0.00 | 34 | 1002.2 |
| 20260508223536 | 64 | 27 | 3.0 | 10.0 | 0.00 | 0.00 | 0.00 | 33 | 1002.3 |
| 20260508223036 | 64 | 360 | 3.0 | 11.0 | 0.00 | 0.00 | 0.00 | 35 | 1002.2 |
| 20260508222535 | 64 | 5 | 5.0 | 12.0 | 0.00 | 0.00 | 0.00 | 34 | 1002.2 |
| 20260508222035 | 64 | 330 | 3.0 | 12.0 | 0.00 | 0.00 | 0.00 | 34 | 1002.3 |
| 20260508221545 | 65 | 129 | 3.0 | 11.0 | 0.00 | 0.00 | 0.00 | 34 | 1002.2 |
| 20260508221035 | 65 | 342 | 3.0 | 12.0 | 0.00 | 0.00 | 0.00 | 34 | 1002.3 |
| 20260508220536 | 65 | 355 | 5.0 | 12.0 | 0.00 | 0.00 | 0.00 | 32 | 1002.3 |
| 20260508220036 | 65 | 76 | 3.0 | 12.0 | 0.00 | 0.00 | 0.00 | 33 | 1002.3 |
| 20260508215534 | 66 | 316 | 4.0 | 12.0 | 0.00 | 0.00 | 0.00 | 32 | 1002.2 |
| 20260508215035 | 66 | 331 | 4.0 | 16.0 | 0.00 | 0.00 | 0.00 | 32 | 1002.2 |
| 20260508214539 | 66 | 281 | 6.0 | 13.0 | 0.00 | 0.00 | 0.00 | 32 | 1002.1 |
| 20260508214032 | 66 | 10 | 3.0 | 14.0 | 0.00 | 0.00 | 0.00 | 32 | 1002.3 |
| 20260508213530 | 65 | 343 | 5.0 | 14.0 | 0.00 | 0.00 | 0.00 | 32 | 1002.3 |
| 20260508213034 | 66 | 349 | 3.0 | 11.0 | 0.00 | 0.00 | 0.00 | 32 | 1002.1 |
| 20260508212529 | 66 | 319 | 3.0 | 21.0 | 0.00 | 0.00 | 0.00 | 34 | 1002.1 |
| 20260508212029 | 66 | 336 | 7.0 | 21.0 | 0.00 | 0.00 | 0.00 | 32 | 1002.1 |
| 20260508211528 | 67 | 70 | 5.0 | 11.0 | 0.00 | 0.00 | 0.00 | 31 | 1001.9 |
| 20260508211027 | 67 | 63 | 4.0 | 12.0 | 0.00 | 0.00 | 0.00 | 31 | 1002.3 |
| 20260508210527 | 68 | 289 | 4.0 | 12.0 | 0.00 | 0.00 | 0.00 | 34 | 1001.8 |
| 20260508210027 | 67 | 71 | 3.0 | 12.0 | 0.00 | 0.00 | 0.00 | 33 | 1002.0 |
| 20260508205526 | 67 | 74 | 4.0 | 26.0 | 0.00 | 0.00 | 0.00 | 32 | 1001.9 |
| 20260508205028 | 67 | 295 | 7.0 | 18.0 | 0.00 | 0.00 | 0.00 | 31 | 1002.0 |
| 20260508204525 | 67 | 331 | 3.0 | 19.0 | 0.00 | 0.00 | 0.00 | 34 | 1001.9 |
| 20260508204028 | 67 | 355 | 6.0 | 19.0 | 0.00 | 0.00 | 0.00 | 32 | 1001.9 |
| 20260508203524 | 67 | 40 | 6.0 | 17.0 | 0.00 | 0.00 | 0.00 | 33 | 1001.9 |
| 20260508203024 | 68 | 78 | 4.0 | 10.0 | 0.00 | 0.00 | 0.00 | 33 | 1001.8 |
| 20260508202526 | 67 | 196 | 3.0 | 12.0 | 0.00 | 0.00 | 0.00 | 35 | 1001.7 |
| 20260508202023 | 67 | 315 | 5.0 | 12.0 | 0.00 | 0.00 | 0.00 | 33 | 1001.7 |
| 20260508201523 | 68 | 32 | 4.0 | 10.0 | 0.00 | 0.00 | 0.00 | 32 | 1001.8 |
| 20260508201026 | 69 | 184 | 4.0 | 14.0 | 0.00 | 0.00 | 0.00 | 31 | 1001.7 |
| 20260508200521 | 68 | 351 | 2.0 | 14.0 | 0.00 | 0.00 | 0.00 | 31 | 1001.7 |
| 20260508200035 | 68 | 336 | 4.0 | 18.0 | 0.00 | 0.00 | 0.00 | 30 | 1001.6 |
| 20260508195519 | 67 | 10 | 6.0 | 18.0 | 0.00 | 0.00 | 0.00 | 30 | 1001.9 |
| 20260508195021 | 67 | 49 | 4.0 | 10.0 | 0.00 | 0.00 | 0.00 | 29 | 1001.7 |
| 20260508194518 | 67 | 348 | 3.0 | 11.0 | 0.00 | 0.00 | 0.00 | 30 | 1001.8 |
| 20260508194019 | 66 | 293 | 4.0 | 11.0 | 0.00 | 0.00 | 0.00 | 29 | 1001.8 |
| 20260508193516 | 66 | 57 | 2.0 | 12.0 | 0.00 | 0.00 | 0.00 | 28 | 1001.8 |
| 20260508193016 | 67 | 78 | 3.0 | 18.0 | 0.00 | 0.00 | 0.00 | 29 | 1001.9 |
| 20260508192522 | 66 | 355 | 3.0 | 18.0 | 0.00 | 0.00 | 0.00 | 31 | 1001.9 |
| 20260508192016 | 66 | 302 | 2.0 | 16.0 | 0.00 | 0.00 | 0.00 | 30 | 1002.0 |
| 20260508191514 | 67 | 290 | 7.0 | 16.0 | 0.00 | 0.00 | 0.00 | 27 | 1001.9 |
| 20260508191012 | 67 | 51 | 1.0 | 16.0 | 0.00 | 0.00 | 0.00 | 30 | 1002.2 |
| 20260508190514 | 67 | 288 | 8.0 | 17.0 | 0.00 | 0.00 | 0.00 | 30 | 1002.1 |
| 20260508190017 | 66 | 303 | 4.0 | 14.0 | 0.00 | 0.00 | 0.00 | 29 | 1002.2 |
| 20260508185510 | 65 | 142 | 4.0 | 17.0 | 0.00 | 0.00 | 0.00 | 29 | 1002.2 |
| 20260508185010 | 66 | 350 | 7.0 | 17.0 | 0.00 | 0.00 | 0.00 | 29 | 1002.2 |
| 20260508184513 | 66 | 11 | 3.0 | 18.0 | 0.00 | 0.00 | 0.00 | 27 | 1002.4 |
| 20260508184008 | 67 | 317 | 4.0 | 18.0 | 0.00 | 0.00 | 0.00 | 27 | 1002.5 |
| 20260508183507 | 66 | 298 | 4.0 | 22.0 | 0.00 | 0.00 | 0.00 | 28 | 1002.5 |
| 20260508183006 | 65 | 335 | 15.0 | 22.0 | 0.00 | 0.00 | 0.00 | 29 | 1002.5 |
| 20260508182506 | 65 | 294 | 11.0 | 16.0 | 0.00 | 0.00 | 0.00 | 27 | 1002.5 |
| 20260508182004 | 66 | 294 | 2.0 | 13.0 | 0.00 | 0.00 | 0.00 | 26 | 1002.7 |
| 20260508181504 | 66 | 327 | 3.0 | 16.0 | 0.00 | 0.00 | 0.00 | 27 | 1002.7 |
| 20260508181003 | 65 | 280 | 3.0 | 11.0 | 0.00 | 0.00 | 0.00 | 28 | 1002.9 |
| 20260508180501 | 65 | 328 | 2.0 | 23.0 | 0.00 | 0.00 | 0.00 | 27 | 1003.0 |
| 20260508180108 | 65 | 342 | 11.0 | 23.0 | 0.00 | 0.00 | 0.00 | 26 | 1003.0 |
| 20260508175604 | 64 | 290 | 8.0 | 17.0 | 0.00 | 0.00 | 0.00 | 26 | 1003.0 |
| 20260508175059 | 64 | 279 | 3.0 | 16.0 | 0.00 | 0.00 | 0.00 | 27 | 1003.2 |
| 20260508174556 | 64 | 338 | 7.0 | 19.0 | 0.00 | 0.00 | 0.00 | 26 | 1003.3 |
| 20260508174057 | 64 | 298 | 12.0 | 19.0 | 0.00 | 0.00 | 0.00 | 26 | 1003.3 |
| 20260508173558 | 65 | 343 | 4.0 | 16.0 | 0.00 | 0.00 | 0.00 | 27 | 1003.4 |
| 20260508173100 | 65 | 288 | 11.0 | 16.0 | 0.00 | 0.00 | 0.00 | 26 | 1003.4 |
| 20260508172551 | 64 | 26 | 7.0 | 18.0 | 0.00 | 0.00 | 0.00 | 32 | 1003.6 |
| 20260508172050 | 64 | 322 | 7.0 | 18.0 | 0.00 | 0.00 | 0.00 | 29 | 1003.7 |
| 20260508171553 | 63 | 307 | 9.0 | 15.0 | 0.00 | 0.00 | 0.00 | 31 | 1003.7 |
| 20260508171047 | 63 | 9 | 2.0 | 13.0 | 0.00 | 0.00 | 0.00 | 33 | 1003.8 |
| 20260508170545 | 62 | 309 | 6.0 | 13.0 | 0.00 | 0.00 | 0.00 | 29 | 1003.9 |
| 20260508170044 | 62 | 312 | 7.0 | 16.0 | 0.00 | 0.00 | 0.00 | 30 | 1003.9 |
| 20260508165543 | 62 | 302 | 5.0 | 16.0 | 0.00 | 0.00 | 0.00 | 30 | 1004.0 |
| 20260508165042 | 61 | 284 | 6.0 | 18.0 | 0.00 | 0.00 | 0.00 | 30 | 1004.0 |
| 20260508164541 | 61 | 272 | 9.0 | 21.0 | 0.00 | 0.00 | 0.00 | 31 | 1004.2 |
| 20260508164040 | 61 | 278 | 12.0 | 21.0 | 0.00 | 0.00 | 0.00 | 31 | 1004.3 |
| 20260508163538 | 61 | 290 | 9.0 | 15.0 | 0.00 | 0.00 | 0.00 | 30 | 1004.3 |
| 20260508163042 | 61 | 286 | 8.0 | 11.0 | 0.00 | 0.00 | 0.00 | 31 | 1004.3 |
| 20260508162536 | 60 | 300 | 8.0 | 12.0 | 0.00 | 0.00 | 0.00 | 31 | 1004.4 |
| 20260508162038 | 60 | 288 | 8.0 | 12.0 | 0.00 | 0.00 | 0.00 | 32 | 1004.4 |
| 20260508161538 | 60 | 314 | 7.0 | 11.0 | 0.00 | 0.00 | 0.00 | 31 | 1004.5 |
| 20260508161033 | 60 | 274 | 6.0 | 11.0 | 0.00 | 0.00 | 0.00 | 32 | 1004.5 |
| 20260508160530 | 59 | 311 | 7.0 | 16.0 | 0.00 | 0.00 | 0.00 | 32 | 1004.5 |
| 20260508160034 | 59 | 264 | 5.0 | 10.0 | 0.00 | 0.00 | 0.00 | 34 | 1004.6 |
| 20260508155531 | 58 | 295 | 4.0 | 12.0 | 0.00 | 0.00 | 0.00 | 33 | 1004.6 |
| 20260508155027 | 58 | 287 | 4.0 | 11.0 | 0.00 | 0.00 | 0.00 | 35 | 1004.6 |
| 20260508154526 | 58 | 250 | 4.0 | 12.0 | 0.00 | 0.00 | 0.00 | 36 | 1004.7 |
| 20260508154025 | 58 | 242 | 7.0 | 12.0 | 0.00 | 0.00 | 0.00 | 36 | 1004.8 |
| 20260508153524 | 58 | 246 | 6.0 | 11.0 | 0.00 | 0.00 | 0.00 | 35 | 1004.9 |
| 20260508153024 | 58 | 256 | 7.0 | 11.0 | 0.00 | 0.00 | 0.00 | 37 | 1004.9 |
| 20260508152523 | 57 | 265 | 7.0 | 10.0 | 0.00 | 0.00 | 0.00 | 37 | 1004.9 |
| 20260508152049 | 57 | 248 | 8.0 | 11.0 | 0.00 | 0.00 | 0.00 | 36 | 1004.9 |
| 20260508151519 | 57 | 257 | 7.0 | 11.0 | 0.00 | 0.00 | 0.00 | 37 | 1005.0 |
| 20260508151023 | 57 | 271 | 5.0 | 10.0 | 0.00 | 0.00 | 0.00 | 38 | 1005.1 |
| 20260508150516 | 57 | 221 | 5.0 | 9.0 | 0.00 | 0.00 | 0.00 | 39 | 1005.1 |
| 20260508150021 | 56 | 251 | 5.0 | 10.0 | 0.00 | 0.00 | 0.00 | 36 | 1005.2 |
| 20260508145513 | 56 | 252 | 4.0 | 9.0 | 0.00 | 0.00 | 0.00 | 38 | 1005.2 |
| 20260508145013 | 56 | 256 | 6.0 | 11.0 | 0.00 | 0.00 | 0.00 | 36 | 1005.2 |
| 20260508144526 | 56 | 282 | 6.0 | 10.0 | 0.00 | 0.00 | 0.00 | 38 | 1005.1 |
| 20260508144010 | 56 | 296 | 7.0 | 10.0 | 0.00 | 0.00 | 0.00 | 37 | 1005.3 |
| 20260508143509 | 56 | 277 | 5.0 | 9.0 | 0.00 | 0.00 | 0.00 | 38 | 1005.3 |
| 20260508143023 | 56 | 265 | 5.0 | 8.0 | 0.00 | 0.00 | 0.00 | 40 | 1005.4 |
| 20260508142505 | 55 | 241 | 2.0 | 8.0 | 0.00 | 0.00 | 0.00 | 41 | 1005.6 |
| 20260508142004 | 54 | 264 | 3.0 | 8.0 | 0.00 | 0.00 | 0.00 | 42 | 1005.7 |
| 20260508141505 | 54 | 289 | 4.0 | 8.0 | 0.00 | 0.00 | 0.00 | 44 | 1005.6 |
| 20260508141004 | 53 | 261 | 4.0 | 8.0 | 0.00 | 0.00 | 0.00 | 45 | 1005.6 |
| 20260508140559 | 53 | 254 | 4.0 | 8.0 | 0.00 | 0.00 | 0.00 | 47 | 1005.7 |
| 20260508140105 | 52 | 279 | 3.0 | 7.0 | 0.00 | 0.00 | 0.00 | 50 | 1005.7 |
| 20260508135559 | 51 | 213 | 2.0 | 4.0 | 0.00 | 0.00 | 0.00 | 52 | 1005.9 |
| 20260508135056 | 51 | 248 | 2.0 | 5.0 | 0.00 | 0.00 | 0.00 | 53 | 1005.8 |
| 20260508134553 | 51 | 360 | 3.0 | 5.0 | 0.00 | 0.00 | 0.00 | 55 | 1005.8 |
| 20260508134052 | 50 | 360 | 3.0 | 5.0 | 0.00 | 0.00 | 0.00 | 55 | 1005.9 |
| 20260508133551 | 49 | 360 | 3.0 | 5.0 | 0.00 | 0.00 | 0.00 | 56 | 1005.9 |
| 20260508133049 | 49 | 360 | 3.0 | 5.0 | 0.00 | 0.00 | 0.00 | 56 | 1005.9 |
| 20260508132548 | 48 | 360 | 3.0 | 5.0 | 0.00 | 0.00 | 0.00 | 59 | 1005.9 |
| 20260508132047 | 47 | 360 | 3.0 | 5.0 | 0.00 | 0.00 | 0.00 | 62 | 1006.0 |
| 20260508131548 | 46 | 360 | 3.0 | 4.0 | 0.00 | 0.00 | 0.00 | 63 | 1006.1 |
| 20260508131044 | 44 | 360 | 1.0 | 3.0 | 0.00 | 0.00 | 0.00 | 70 | 1006.0 |
| 20260508130542 | 43 | 360 | 0.0 | 2.0 | 0.00 | 0.00 | 0.00 | 73 | 1006.1 |
| 20260508130041 | 42 | 360 | 0.0 | 2.0 | 0.00 | 0.00 | 0.00 | 80 | 1006.1 |
| 20260508125542 | 42 | 360 | 0.0 | 0.0 | 0.00 | 0.00 | 0.00 | 82 | 1006.2 |
| 20260508125038 | 41 | 360 | 0.0 | 0.0 | 0.00 | 0.00 | 0.00 | 83 | 1006.2 |
| 20260508124538 | 41 | 360 | 0.0 | 0.0 | 0.00 | 0.00 | 0.00 | 84 | 1006.2 |
| 20260508124037 | 40 | 360 | 0.0 | 0.0 | 0.00 | 0.00 | 0.00 | 85 | 1006.3 |
| 20260508123536 | 39 | 360 | 0.0 | 2.0 | 0.00 | 0.00 | 0.00 | 86 | 1006.3 |
| 20260508123036 | 39 | 360 | 1.0 | 2.0 | 0.00 | 0.00 | 0.00 | 87 | 1006.3 |
| 20260508122536 | 38 | 360 | 1.0 | 3.0 | 0.00 | 0.00 | 0.00 | 88 | 1006.3 |
| 20260508122035 | 37 | 360 | 1.0 | 3.0 | 0.00 | 0.00 | 0.00 | 88 | 1006.4 |
| 20260508121536 | 37 | 360 | 0.0 | 1.0 | 0.00 | 0.00 | 0.00 | 86 | 1006.3 |
| 20260508121035 | 37 | 360 | 0.0 | 1.0 | 0.00 | 0.00 | 0.00 | 86 | 1006.1 |
| 20260508120534 | 38 | 360 | 0.0 | 0.0 | 0.00 | 0.00 | 0.00 | 87 | 1006.1 |
| 20260508120037 | 38 | 360 | 0.0 | 2.0 | 0.00 | 0.00 | 0.00 | 87 | 1006.0 |
| 20260508115537 | 38 | 360 | 0.0 | 2.0 | 0.00 | 0.00 | 0.00 | 87 | 1006.1 |
| 20260508115034 | 38 | 360 | 0.0 | 1.0 | 0.00 | 0.00 | 0.00 | 87 | 1006.1 |
| 20260508114536 | 38 | 360 | 0.0 | 2.0 | 0.00 | 0.00 | 0.00 | 88 | 1006.1 |
| 20260508114035 | 37 | 360 | 1.0 | 2.0 | 0.00 | 0.00 | 0.00 | 88 | 1006.0 |
| 20260508113535 | 37 | 360 | 1.0 | 2.0 | 0.00 | 0.00 | 0.00 | 88 | 1006.0 |
| 20260508113048 | 37 | 360 | 0.0 | 2.0 | 0.00 | 0.00 | 0.00 | 88 | 1006.1 |
| 20260508112533 | 36 | 360 | 0.0 | 1.0 | 0.00 | 0.00 | 0.00 | 88 | 1006.0 |
| 20260508112033 | 36 | 360 | 0.0 | 0.0 | 0.00 | 0.00 | 0.00 | 88 | 1006.1 |
| 20260508111533 | 36 | 360 | 0.0 | 0.0 | 0.00 | 0.00 | 0.00 | 88 | 1006.1 |
| 20260508111034 | 36 | 360 | 0.0 | 0.0 | 0.00 | 0.00 | 0.00 | 87 | 1006.1 |
| 20260508110533 | 36 | 360 | 0.0 | 0.0 | 0.00 | 0.00 | 0.00 | 86 | 1006.1 |
| 20260508110034 | 36 | 360 | 0.0 | 0.0 | 0.00 | 0.00 | 0.00 | 86 | 1006.2 |
| 20260508105533 | 36 | 360 | 0.0 | 0.0 | 0.00 | 0.00 | 0.00 | 86 | 1006.1 |
| 20260508105032 | 37 | 360 | 0.0 | 0.0 | 0.00 | 0.00 | 0.00 | 87 | 1006.1 |
| 20260508104540 | 37 | 360 | 0.0 | 2.0 | 0.00 | 0.00 | 0.00 | 89 | 1006.1 |
| 20260508104031 | 37 | 360 | 0.0 | 3.0 | 0.00 | 0.00 | 0.00 | 89 | 1006.1 |
| 20260508103531 | 36 | 360 | 1.0 | 3.0 | 0.00 | 0.00 | 0.00 | 89 | 1006.2 |
| 20260508103031 | 36 | 360 | 1.0 | 2.0 | 0.00 | 0.00 | 0.00 | 90 | 1006.2 |
| 20260508102530 | 36 | 360 | 0.0 | 0.0 | 0.00 | 0.00 | 0.00 | 88 | 1006.2 |
| 20260508102030 | 36 | 360 | 0.0 | 0.0 | 0.00 | 0.00 | 0.00 | 89 | 1006.3 |
| 20260508101536 | 36 | 360 | 0.0 | 0.0 | 0.00 | 0.00 | 0.00 | 88 | 1006.2 |
| 20260508101031 | 36 | 360 | 0.0 | 0.0 | 0.00 | 0.00 | 0.00 | 89 | 1006.3 |
| 20260508100528 | 36 | 360 | 0.0 | 0.0 | 0.00 | 0.00 | 0.00 | 90 | 1006.4 |
| 20260508100035 | 35 | 360 | 0.0 | 0.0 | 0.00 | 0.00 | 0.00 | 91 | 1006.4 |
| 20260508095528 | 35 | 360 | 0.0 | 0.0 | 0.00 | 0.00 | 0.00 | 91 | 1006.4 |
| 20260508095028 | 35 | 360 | 0.0 | 0.0 | 0.00 | 0.00 | 0.00 | 90 | 1006.5 |
| 20260508094527 | 34 | 360 | 0.0 | 0.0 | 0.00 | 0.00 | 0.00 | 90 | 1006.5 |
| 20260508094027 | 34 | 360 | 0.0 | 0.0 | 0.00 | 0.00 | 0.00 | 90 | 1006.5 |
| 20260508093527 | 34 | 360 | 0.0 | 0.0 | 0.00 | 0.00 | 0.00 | 88 | 1006.4 |
| 20260508093027 | 34 | 360 | 0.0 | 0.0 | 0.00 | 0.00 | 0.00 | 88 | 1006.4 |
| 20260508092527 | 35 | 360 | 0.0 | 0.0 | 0.00 | 0.00 | 0.00 | 88 | 1006.4 |
| 20260508092025 | 35 | 360 | 0.0 | 0.0 | 0.00 | 0.00 | 0.00 | 89 | 1006.5 |
| 20260508091527 | 36 | 360 | 0.0 | 0.0 | 0.00 | 0.00 | 0.00 | 90 | 1006.5 |
| 20260508091026 | 36 | 360 | 0.0 | 2.0 | 0.00 | 0.00 | 0.00 | 91 | 1006.5 |
| 20260508090524 | 35 | 360 | 0.0 | 2.0 | 0.00 | 0.00 | 0.00 | 91 | 1006.6 |
| 20260508090028 | 35 | 360 | 0.0 | 1.0 | 0.00 | 0.00 | 0.00 | 90 | 1006.7 |
| 20260508085523 | 34 | 360 | 0.0 | 1.0 | 0.00 | 0.00 | 0.00 | 88 | 1006.7 |
| 20260508085023 | 35 | 360 | 0.0 | 0.0 | 0.00 | 0.00 | 0.00 | 87 | 1006.7 |
| 20260508084522 | 35 | 360 | 0.0 | 2.0 | 0.00 | 0.00 | 0.00 | 88 | 1006.7 |
| 20260508084022 | 36 | 360 | 0.0 | 2.0 | 0.00 | 0.00 | 0.00 | 90 | 1006.7 |
| 20260508083521 | 36 | 360 | 0.0 | 2.0 | 0.00 | 0.00 | 0.00 | 90 | 1006.7 |
| 20260508083020 | 35 | 360 | 0.0 | 1.0 | 0.00 | 0.00 | 0.00 | 89 | 1006.7 |
| 20260508082524 | 35 | 360 | 0.0 | 0.0 | 0.00 | 0.00 | 0.00 | 89 | 1006.8 |
| 20260508082021 | 35 | 360 | 0.0 | 1.0 | 0.00 | 0.00 | 0.00 | 89 | 1006.9 |
| 20260508081519 | 35 | 360 | 0.0 | 1.0 | 0.00 | 0.00 | 0.00 | 89 | 1006.9 |
| 20260508081020 | 34 | 360 | 0.0 | 0.0 | 0.00 | 0.00 | 0.00 | 87 | 1007.0 |
| 20260508080517 | 34 | 360 | 0.0 | 0.0 | 0.00 | 0.00 | 0.00 | 87 | 1007.0 |
| 20260508080016 | 34 | 360 | 0.0 | 0.0 | 0.00 | 0.00 | 0.00 | 86 | 1007.0 |
| 20260508075516 | 34 | 360 | 0.0 | 0.0 | 0.00 | 0.00 | 0.00 | 86 | 1006.9 |
| 20260508075016 | 35 | 360 | 0.0 | 0.0 | 0.00 | 0.00 | 0.00 | 86 | 1007.0 |
| 20260508074518 | 35 | 360 | 0.0 | 0.0 | 0.00 | 0.00 | 0.00 | 88 | 1007.1 |
| 20260508074013 | 34 | 360 | 0.0 | 1.0 | 0.00 | 0.00 | 0.00 | 88 | 1007.0 |
| 20260508073514 | 34 | 360 | 0.0 | 1.0 | 0.00 | 0.00 | 0.00 | 86 | 1007.1 |
| 20260508073011 | 34 | 360 | 0.0 | 0.0 | 0.00 | 0.00 | 0.00 | 83 | 1007.1 |
| 20260508072511 | 34 | 360 | 0.0 | 0.0 | 0.00 | 0.00 | 0.00 | 83 | 1007.0 |
| 20260508072009 | 34 | 360 | 0.0 | 0.0 | 0.00 | 0.00 | 0.00 | 82 | 1007.1 |
| 20260508071508 | 35 | 360 | 0.0 | 1.0 | 0.00 | 0.00 | 0.00 | 80 | 1007.1 |
| 20260508071006 | 36 | 360 | 0.0 | 1.0 | 0.00 | 0.00 | 0.00 | 80 | 1007.2 |
| 20260508070505 | 37 | 360 | 0.0 | 1.0 | 0.00 | 0.00 | 0.00 | 82 | 1007.2 |
| 20260508070005 | 37 | 360 | 0.0 | 2.0 | 0.00 | 0.00 | 0.00 | 85 | 1007.2 |
| 20260508065503 | 37 | 360 | 1.0 | 2.0 | 0.00 | 0.00 | 0.00 | 84 | 1007.3 |
| 20260508065002 | 37 | 360 | 1.0 | 2.0 | 0.00 | 0.00 | 0.00 | 83 | 1007.3 |
| 20260508064502 | 37 | 360 | 1.0 | 2.0 | 0.00 | 0.00 | 0.00 | 82 | 1007.3 |
| 20260508064100 | 37 | 360 | 0.0 | 0.0 | 0.00 | 0.00 | 0.00 | 80 | 1007.2 |
| 20260508063559 | 37 | 360 | 0.0 | 0.0 | 0.00 | 0.00 | 0.00 | 81 | 1007.3 |
| 20260508063059 | 37 | 360 | 0.0 | 1.0 | 0.00 | 0.00 | 0.00 | 81 | 1007.3 |
| 20260508062558 | 37 | 360 | 0.0 | 2.0 | 0.00 | 0.00 | 0.00 | 81 | 1007.2 |
| 20260508062057 | 37 | 360 | 0.0 | 2.0 | 0.00 | 0.00 | 0.00 | 81 | 1007.3 |
| 20260508061601 | 37 | 360 | 1.0 | 2.0 | 0.00 | 0.00 | 0.00 | 80 | 1007.3 |
| 20260508061056 | 37 | 360 | 0.0 | 0.0 | 0.00 | 0.00 | 0.00 | 77 | 1007.4 |
| 20260508060553 | 38 | 360 | 0.0 | 1.0 | 0.00 | 0.00 | 0.00 | 79 | 1007.3 |
| 20260508060053 | 38 | 360 | 0.0 | 2.0 | 0.00 | 0.00 | 0.00 | 79 | 1007.4 |
| 20260508055553 | 39 | 360 | 0.0 | 2.0 | 0.00 | 0.00 | 0.00 | 80 | 1007.3 |
| 20260508055051 | 39 | 360 | 1.0 | 2.0 | 0.00 | 0.00 | 0.00 | 80 | 1007.5 |
| 20260508054615 | 39 | 360 | 1.0 | 2.0 | 0.00 | 0.00 | 0.00 | 80 | 1007.4 |
| 20260508054053 | 39 | 360 | 1.0 | 2.0 | 0.00 | 0.00 | 0.00 | 80 | 1007.6 |
| 20260508053547 | 39 | 360 | 0.0 | 1.0 | 0.00 | 0.00 | 0.00 | 78 | 1007.6 |
| 20260508053047 | 39 | 360 | 0.0 | 2.0 | 0.00 | 0.00 | 0.00 | 77 | 1007.5 |
| 20260508052550 | 39 | 360 | 1.0 | 2.0 | 0.00 | 0.00 | 0.00 | 76 | 1007.5 |
| 20260508052046 | 39 | 360 | 1.0 | 2.0 | 0.00 | 0.00 | 0.00 | 76 | 1007.5 |
| 20260508051545 | 38 | 360 | 0.0 | 1.0 | 0.00 | 0.00 | 0.00 | 72 | 1007.5 |
| 20260508051042 | 39 | 360 | 0.0 | 1.0 | 0.00 | 0.00 | 0.00 | 70 | 1007.7 |
| 20260508050540 | 40 | 360 | 0.0 | 1.0 | 0.00 | 0.00 | 0.00 | 70 | 1007.7 |
| 20260508050040 | 41 | 360 | 0.0 | 2.0 | 0.00 | 0.00 | 0.00 | 72 | 1007.6 |
| 20260508045538 | 41 | 360 | 1.0 | 2.0 | 0.00 | 0.00 | 0.00 | 74 | 1007.6 |
| 20260508045038 | 41 | 360 | 1.0 | 2.0 | 0.00 | 0.00 | 0.00 | 71 | 1007.6 |
| 20260508044538 | 42 | 360 | 1.0 | 2.0 | 0.00 | 0.00 | 0.00 | 70 | 1007.7 |
| 20260508044037 | 42 | 360 | 0.0 | 1.0 | 0.00 | 0.00 | 0.00 | 70 | 1007.7 |
| 20260508043539 | 42 | 360 | 0.0 | 0.0 | 0.00 | 0.00 | 0.00 | 68 | 1007.7 |
| 20260508043047 | 42 | 360 | 0.0 | 0.0 | 0.00 | 0.00 | 0.00 | 61 | 1007.7 |
| 20260508042540 | 43 | 360 | 0.0 | 0.0 | 0.00 | 0.00 | 0.00 | 61 | 1007.8 |
| 20260508042040 | 44 | 360 | 0.0 | 0.0 | 0.00 | 0.00 | 0.00 | 63 | 1007.7 |
| 20260508041538 | 44 | 360 | 0.0 | 1.0 | 0.00 | 0.00 | 0.00 | 61 | 1007.7 |
| 20260508041040 | 44 | 360 | 0.0 | 1.0 | 0.00 | 0.00 | 0.00 | 61 | 1007.9 |
| 20260508040537 | 45 | 360 | 0.0 | 1.0 | 0.00 | 0.00 | 0.00 | 62 | 1007.9 |
| 20260508040043 | 45 | 360 | 0.0 | 2.0 | 0.00 | 0.00 | 0.00 | 60 | 1007.8 |
| 20260508035541 | 45 | 360 | 1.0 | 2.0 | 0.00 | 0.00 | 0.00 | 61 | 1008.0 |
| 20260508035036 | 45 | 360 | 1.0 | 2.0 | 0.00 | 0.00 | 0.00 | 61 | 1007.9 |
| 20260508034536 | 44 | 360 | 1.0 | 2.0 | 0.00 | 0.00 | 0.00 | 61 | 1007.9 |
| 20260508034036 | 44 | 360 | 0.0 | 2.0 | 0.00 | 0.00 | 0.00 | 62 | 1007.9 |
| 20260508033536 | 44 | 360 | 0.0 | 0.0 | 0.00 | 0.00 | 0.00 | 62 | 1008.0 |
| 20260508033036 | 45 | 360 | 0.0 | 0.0 | 0.00 | 0.00 | 0.00 | 61 | 1007.9 |
| 20260508032536 | 45 | 360 | 0.0 | 2.0 | 0.00 | 0.00 | 0.00 | 61 | 1008.0 |
| 20260508032036 | 46 | 360 | 0.0 | 2.0 | 0.00 | 0.00 | 0.00 | 60 | 1007.9 |
| 20260508031544 | 46 | 360 | 0.0 | 1.0 | 0.00 | 0.00 | 0.00 | 56 | 1007.9 |
| 20260508031035 | 47 | 360 | 0.0 | 2.0 | 0.00 | 0.00 | 0.00 | 55 | 1007.9 |
| 20260508030535 | 48 | 360 | 0.0 | 3.0 | 0.00 | 0.00 | 0.00 | 53 | 1008.0 |
| 20260508030035 | 48 | 360 | 1.0 | 3.0 | 0.00 | 0.00 | 0.00 | 51 | 1008.0 |
| 20260508025535 | 48 | 360 | 0.0 | 3.0 | 0.00 | 0.00 | 0.00 | 49 | 1007.9 |
| 20260508025037 | 48 | 360 | 1.0 | 4.0 | 0.00 | 0.00 | 0.00 | 47 | 1007.8 |
| 20260508024534 | 49 | 360 | 0.0 | 4.0 | 0.00 | 0.00 | 0.00 | 47 | 1007.8 |
| 20260508024034 | 49 | 360 | 0.0 | 0.0 | 0.00 | 0.00 | 0.00 | 43 | 1007.7 |
| 20260508023534 | 49 | 360 | 0.0 | 1.0 | 0.00 | 0.00 | 0.00 | 44 | 1007.6 |
| 20260508023034 | 49 | 360 | 0.0 | 2.0 | 0.00 | 0.00 | 0.00 | 42 | 1007.6 |
| 20260508022534 | 50 | 360 | 0.0 | 2.0 | 0.00 | 0.00 | 0.00 | 44 | 1007.6 |
| 20260508022035 | 50 | 360 | 0.0 | 2.0 | 0.00 | 0.00 | 0.00 | 42 | 1007.5 |